sat.trackr.live / text

‹ back to catalog

STARLINK-35386

NORAD 65862 · 2025-223J

PAYLOAD ACTIVE UNKNOWN

§ Identity

Operator
Country
US
Launch date
2025-10-03
Launch site
AFWTR
Launch vehicle
Mass (kg)
RCS (m²)

Purposes: comms

External: N2YO · Heavens-Above · Gunter

§ Orbital elements

Epoch: 2026-09-20T06:33:23.387040Z

Period
93.85 min
Inclination
53.1574°
Eccentricity
0.0000424
Mean motion
15.34400306 rev/d
Perigee alt
462.4 km
Apogee alt
463.0 km
Semi-major
6,840.8 km
B*
2.2716e-4
RAAN
107.0686°
Arg perigee
103.8048°
Mean anomaly
256.3002°
Rev number
5,404

§ Raw data

STARLINK-353861 65862U 25223J   26263.27318735  .00007307  00000+0  22716-3 0  99932 65862  53.1574 107.0686 0000424 103.8048 256.3002 15.34400306 54043

JSON: /api/v1/satellites/65862 · /tle

For live sub-satellite position, see the globe view (requires WebGL).

§ Visibility from observer

Set your observer location to see the next 7 days of passes ≥ 10°. The values pass through the URL so the page stays shareable.

No JS? Fill the form by hand. The geolocation button needs JavaScript.